Location: Bühlhof
(48.7849°N, 8.6361°E)
Time: 23:56:03
(UTC+00:00)

SL-16 R/B - Pass Details

Date: 19 January 2026
Orbit: 841 x 845 km, 71.0° (Epoch: 17 February)

Event Time Altitude Azimuth Distance (km) Brightness Sun altitude
Rises 18:52:27 0° 335° (NNW) 3,414 5.7 -27.5°
Reaches altitude 10° 18:55:13 10° 346° (NNW) 2,476 4.8 -27.9°
Enters shadow 18:57:25 20° 3° (N) 1,847 3.9 -28.3°
